Location: Beccas
(43.4309°N, 0.1528°E)
Time: 01:18:08
(UTC+00:00)

Cosmos 1703 - Visible Passes

Search period start: 22 May 2022 00:00
Search period end: 01 June 2022 00:00
Orbit: 520 x 535 km, 82.5° (Epoch: 21 May)

Date Brightness Start Highest point End Pass type
(mag) Time Alt. Az. Time Alt. Az. Time Alt. Az.
22 May 5.2 02:20:17 11° SE 02:23:26 26° E 02:26:44 10° NNE visible
23 May 5.3 02:09:13 12° SE 02:12:02 24° E 02:15:13 10° NE visible
23 May 4.6 03:44:38 10° SW 03:47:54 24° WNW 03:51:10 10° NNW visible
24 May 5.4 01:58:08 13° SE 02:00:38 22° E 02:03:40 10° NE visible
24 May 4.5 03:33:23 12° SW 03:36:26 27° WNW 03:39:48 10° NNW visible
25 May 5.5 01:47:00 13° SE 01:49:12 20° E 01:52:05 10° NE visible
25 May 4.3 03:22:16 14° SW 03:24:56 29° WNW 03:28:26 10° NNW visible
26 May 5.6 01:35:50 13° ESE 01:37:46 18° E 01:40:29 10° NE visible
26 May 4.2 03:11:06 17° SW 03:13:28 32° WNW 03:17:02 10° N visible
27 May 5.6 01:24:39 13° ESE 01:26:19 17° E 01:28:50 10° NE visible
27 May 4.1 02:59:54 21° SW 03:01:58 35° WNW 03:05:37 10° N visible
28 May 5.7 01:13:25 13° ESE 01:14:52 15° E 01:17:10 10° NE visible
28 May 3.9 02:48:40 24° SW 02:50:27 38° WNW 02:54:10 10° N visible
29 May 5.7 01:02:10 12° ESE 01:03:24 14° E 01:05:26 10° NE visible
29 May 3.8 02:37:25 28° SW 02:38:57 43° WNW 02:42:43 10° N visible
30 May 5.8 00:50:53 11° ESE 00:51:56 12° E 00:53:37 10° ENE visible
30 May 3.7 02:26:08 33° SW 02:27:25 47° WNW 02:31:14 10° N visible
31 May 5.9 00:39:34 11° E 00:40:27 11° E 00:41:42 10° ENE visible
31 May 3.5 02:14:49 39° SW 02:15:53 52° W 02:19:44 10° N visible
